EHI
7 7 7 8 9 9 9 12 15 17 16 15 13 10 7 4 4 5 4 3 3 3 3 3 3 3 1 0 0 0 0 0 0 0 0 0 0 0 0 0 0 0 0
5 6 7 7 8 9 10 13 17 17 16 16 13 9 7 6 6 5 4 3 3 3 3 3 3 3 2 1 0 0 0 0 0 0 0 0 0 0 0 0 0 0 0
4 5 6 6 7 10 11 14 18 18 16 15 11 7 7 7 7 6 5 4 3 3 3 3 3 3 2 1 0 0 0 0 0 0 0 0 0 0 0 0 0 0 0
4 4 4 5 8 11 13 18 21 19 15 12 9 7 6 6 6 5 5 4 3 3 3 3 3 3 3 1 1 0 0 0 0 0 0 0 0 0 0 0 0 0 0
6 4 4 6 9 12 16 21 23 20 15 11 9 7 5 5 5 5 5 4 3 3 3 3 3 3 3 3 2 1 0 0 0 0 0 0 0 0 0 0 0 0 0
8 7 6 9 12 15 18 22 23 19 15 13 11 8 6 6 5 4 4 4 3 3 3 3 3 3 3 3 3 2 1 0 0 0 0 0 0 0 0 0 0 0 0
10 10 11 14 17 19 20 22 22 19 15 14 12 8 6 6 5 4 4 3 3 3 3 3 3 3 3 3 3 2 1 0 0 0 0 0 0 0 0 0 0 0 0
11 12 15 17 19 20 21 24 23 18 15 14 13 10 8 6 4 3 3 3 3 3 3 3 3 3 3 3 3 1 0 0 0 0 0 0 0 0 0 0 0 0 0
9 12 15 18 18 18 22 25 23 19 16 15 15 14 10 7 5 4 3 3 3 3 3 3 3 3 3 3 2 1 0 0 0 0 0 0 0 0 0 0 0 0 0
5 9 14 18 17 17 19 21 21 19 18 19 19 16 13 10 8 5 4 3 3 3 4 3 3 3 3 3 2 1 0 0 0 0 0 0 0 0 0 0 0 0 0
3 5 11 15 16 15 15 16 16 17 19 22 22 19 17 14 11 8 5 4 3 4 4 4 3 3 3 3 3 1 0 0 0 0 0 0 0 0 0 0 0 0 0
3 4 7 11 13 13 12 12 13 15 19 24 25 23 22 19 14 11 8 5 4 4 4 4 4 3 3 3 3 2 0 0 0 0 0 1 1 1 1 0 0 0 0
4 4 5 8 11 11 10 10 13 15 19 24 26 27 27 25 19 15 12 9 6 5 4 4 3 3 3 3 3 1 0 0 0 0 0 1 2 2 1 1 1 1 0
6 6 6 7 8 9 9 11 14 16 19 23 27 30 33 30 24 19 15 12 9 6 5 4 3 3 3 3 3 1 0 0 0 0 0 1 2 2 2 2 2 2 1
9 9 10 10 10 11 14 16 18 21 24 27 29 32 34 31 26 21 17 13 10 7 6 5 4 3 3 3 2 2 1 1 1 1 1 0 1 1 2 2 2 2 2
12 15 18 19 19 21 24 26 28 30 34 36 34 33 33 30 27 23 19 14 11 9 7 4 3 3 3 1 1 1 1 2 2 2 2 1 0 0 0 0 1 1 1
17 21 25 28 30 31 32 34 37 40 43 44 40 36 34 31 27 23 19 15 13 12 10 5 3 3 2 1 0 0 1 1 2 3 3 1 1 0 0 0 0 0 0
19 23 28 32 34 35 36 37 38 40 44 45 43 40 37 34 28 22 18 15 15 15 12 7 4 3 2 1 0 0 0 0 1 2 2 2 1 0 0 0 0 0 0
21 24 28 32 33 33 35 37 36 36 38 40 40 37 35 32 26 19 14 14 14 14 11 6 4 3 3 1 0 0 0 0 0 1 1 1 1 0 0 0 0 0 0
20 22 25 27 29 29 31 33 31 29 29 30 28 25 23 21 17 13 11 11 11 10 7 5 4 5 4 2 0 0 0 0 0 1 1 1 0 0 0 0 0 0 0
13 15 17 19 20 21 24 25 22 19 17 17 14 11 9 9 8 9 10 10 8 7 5 5 6 7 5 2 0 0 0 0 0 1 2 2 1 0 0 0 0 0 0
8 8 10 10 10 11 14 17 14 10 8 6 5 4 4 3 4 6 9 10 8 5 4 5 5 5 5 2 0 0 0 0 0 1 2 2 1 0 0 0 0 0 0
5 4 5 5 4 3 5 8 8 6 3 2 2 4 4 3 2 4 6 7 7 4 3 4 4 5 5 4 2 1 0 0 0 0 1 1 0 0 0 0 0 0 0
3 3 3 3 2 0 0 2 3 3 1 1 1 3 4 3 3 3 3 4 4 4 4 5 5 7 7 5 3 1 0 0 0 0 0 0 0 0 0 0 0 0 0
2 2 2 3 2 1 1 0 1 1 0 0 0 1 1 2 3 3 1 2 3 3 4 4 5 6 5 3 2 1 0 0 0 0 0 0 0 0 0 0 0 0 0
1 1 2 3 3 2 2 1 0 0 0 0 0 0 0 1 1 1 1 1 2 2 2 2 3 2 2 1 0 0 0 0 0 0 0 0 0 0 0 0 0 0 0
Wind_Speed
10 10 9 9 10 10 10 10 10 9 8 7 7 7 7 6 5 5 6 6 5 5 2 2 3 0 2 2 2 1 0 1 3 3 2 2 2 1 1 2 2 2 2
11 11 11 11 11 11 11 10 10 10 9 7 6 5 6 5 5 5 6 6 5 5 4 2 2 2 2 2 2 2 3 2 2 4 3 2 4 3 2 1 2 3 2
14 13 12 12 12 12 12 10 11 10 10 10 7 6 5 5 6 6 6 6 6 5 3 3 1 1 1 2 0 1 2 2 1 3 4 4 1 1 3 2 2 2 3
13 13 13 13 13 13 12 11 11 11 10 10 9 10 7 6 6 6 6 7 6 6 5 4 3 2 1 1 2 1 1 2 1 1 1 4 5 4 0 3 2 1 1
14 14 14 14 14 13 12 12 12 11 11 10 10 9 7 6 5 6 7 7 6 6 5 5 4 3 2 1 0 1 2 1 2 2 1 1 1 4 5 2 1 1 0
14 14 14 14 13 13 12 12 13 12 12 11 11 10 8 7 7 7 7 7 6 6 6 6 4 4 3 3 3 2 2 1 2 3 2 2 2 3 3 4 4 3 2
13 14 15 15 14 14 14 14 14 13 13 13 12 11 10 9 9 8 7 6 5 5 6 6 5 4 4 4 3 3 2 2 2 3 2 2 2 3 4 5 4 5 3
13 14 15 15 15 16 16 15 15 15 14 14 12 11 10 8 7 8 6 6 5 4 6 6 6 5 5 5 4 4 4 3 3 3 3 3 3 3 3 4 5 6 4
14 14 15 16 16 16 16 16 16 15 15 14 13 12 11 9 7 8 7 6 5 5 7 7 6 6 6 5 5 4 4 4 5 4 5 5 3 3 3 4 5 6 7
13 14 14 16 15 15 15 16 16 15 15 15 13 11 12 11 9 9 8 6 6 6 7 7 7 7 6 6 6 6 5 5 5 4 4 5 5 3 4 4 4 5 7
13 14 13 14 15 15 15 15 15 15 14 14 13 12 11 11 10 9 9 8 8 8 8 8 8 8 7 7 7 7 6 7 6 6 6 7 6 5 5 5 5 5 6
13 13 14 14 14 15 15 15 15 15 15 14 13 13 11 11 11 11 10 10 9 9 9 8 8 8 8 8 8 8 7 8 8 7 7 7 6 7 7 6 6 6 6
12 13 14 14 14 14 14 15 15 15 15 14 14 13 13 12 12 11 10 10 10 9 9 9 9 9 9 9 9 8 8 8 8 8 8 8 8 8 7 7 7 7 7
12 13 14 14 14 14 14 14 14 14 14 14 14 14 13 13 12 11 11 10 10 10 10 10 10 10 10 10 9 9 9 9 9 9 9 9 9 9 9 8 9 8 8
12 13 13 13 13 13 13 13 12 12 12 13 13 13 12 12 11 11 11 11 10 10 10 10 10 10 9 9 10 9 10 10 10 10 10 11 10 8 8 8 8 8 8
9 11 12 12 12 12 12 12 12 11 11 12 12 12 11 11 11 11 11 10 10 10 10 10 11 11 9 7 8 9 10 10 11 11 11 11 11 12 14 14 13 12 11
4 7 9 10 10 10 11 11 11 11 12 12 12 12 12 12 11 11 11 10 10 10 10 11 11 11 10 8 10 12 11 11 11 11 11 11 10 11 12 14 17 17 18
1 2 4 6 7 7 8 8 9 11 11 11 11 11 11 11 10 10 10 10 9 9 9 10 11 11 10 11 12 12 13 13 13 13 13 13 13 12 12 12 13 14 14
3 2 1 3 4 5 6 7 8 8 9 9 9 10 10 10 10 10 10 9 9 9 9 10 10 11 10 11 12 12 11 12 14 14 14 14 14 12 11 13 15 15 13
5 5 5 6 5 4 5 6 6 6 6 6 6 7 7 8 9 9 8 8 8 9 9 9 10 11 11 9 12 12 10 12 12 12 13 15 16 14 13 14 15 16 14
9 8 8 8 7 6 6 6 5 3 2 3 4 5 5 6 6 6 6 6 7 7 8 9 9 10 10 9 11 13 10 11 12 11 11 11 14 17 16 16 15 15 13
11 10 9 9 8 7 6 7 5 3 3 3 3 3 3 3 3 4 4 5 6 7 8 8 9 8 8 9 9 12 14 13 12 12 12 10 8 12 15 15 15 15 12
10 9 10 11 10 8 7 8 6 4 3 3 2 2 2 1 2 3 4 5 5 6 6 6 7 7 6 6 10 12 14 15 12 12 14 13 11 10 12 17 17 15 13
9 9 10 10 9 8 8 7 5 4 4 4 3 2 1 1 1 2 3 4 4 5 6 6 7 7 7 6 5 6 7 10 12 12 13 14 16 15 15 13 13 13 14
8 9 9 9 9 9 8 8 6 5 5 4 3 2 2 1 1 1 2 3 3 3 5 7 7 8 8 6 7 7 9 9 9 10 11 12 12 12 12 13 13 13 13
7 8 9 9 9 9 9 8 7 6 5 4 3 2 2 2 2 2 2 2 4 3 5 7 8 7 8 9 10 11 12 13 12 10 13 14 14 14 14 13 12 12 12
Wind_Direction
170 166 175 180 180 178 174 174 171 168 166 164 167 164 164 163 158 155 148 154 146 141 149 116 120 28 69 33 25 331 204 334 337 286 244 173 151 69 50 356 338 354 320
167 172 180 182 186 184 177 174 174 174 178 172 167 166 156 163 155 152 150 162 159 163 166 151 161 119 113 102 57 354 330 17 356 317 286 213 167 163 90 57 44 15 5
175 178 184 183 183 184 181 179 176 175 180 169 162 154 153 164 162 165 167 171 173 176 168 175 179 158 225 112 86 327 336 342 21 1 326 312 6 112 141 93 57 25 10
181 180 183 186 186 183 180 179 174 176 176 174 176 177 182 182 175 177 167 170 181 182 181 186 186 209 227 142 210 87 312 306 327 99 7 353 357 311 220 173 139 104 16
183 183 185 187 187 183 178 176 175 177 177 183 182 188 192 184 171 174 161 181 177 188 188 191 194 199 215 176 274 152 290 293 324 333 332 356 247 273 292 303 306 259 244
182 185 185 184 184 180 178 176 177 179 180 186 188 196 191 184 176 183 174 189 180 189 188 195 197 204 205 187 203 208 203 300 337 317 320 308 308 310 308 298 286 295 303
181 183 184 184 183 183 182 180 180 182 184 188 191 195 194 189 189 193 187 199 190 189 182 194 196 202 198 201 205 210 238 224 234 262 286 307 309 314 308 302 306 304 288
182 184 186 186 185 185 183 183 184 187 187 191 193 195 195 200 196 197 197 197 206 193 171 189 196 200 199 202 203 223 214 219 234 250 277 277 273 285 287 297 304 296 287
184 185 186 187 187 188 186 187 187 189 190 193 193 195 197 205 195 183 200 197 197 185 180 192 196 197 199 207 213 231 225 221 234 231 219 248 260 257 271 277 287 297 302
185 187 187 189 189 190 188 189 189 191 192 193 195 194 196 198 194 194 195 195 193 192 189 196 198 198 199 204 219 224 212 226 232 245 257 258 259 256 256 262 266 271 285
185 184 186 188 189 190 187 189 191 194 195 196 196 197 195 195 194 195 194 194 196 194 200 201 203 204 205 205 214 235 219 227 233 233 234 241 261 264 263 254 257 260 267
184 183 183 184 188 191 191 191 194 195 196 195 194 196 195 195 197 197 197 195 197 200 203 205 207 210 211 210 216 226 227 230 235 237 238 243 241 242 258 263 263 263 267
186 184 183 185 189 191 193 194 197 198 197 193 194 195 196 196 200 200 197 197 200 205 207 209 213 216 216 216 220 226 231 234 237 239 240 243 245 246 249 251 260 263 259
190 190 188 190 192 194 195 198 199 198 196 193 194 195 197 197 197 196 195 198 201 205 210 213 218 220 220 222 224 226 230 235 239 240 242 244 244 245 249 248 249 257 266
196 197 197 196 197 198 199 201 201 199 197 195 198 198 196 195 195 195 196 198 203 208 211 217 221 222 223 224 225 230 231 233 239 241 241 243 244 252 252 259 257 256 257
206 203 203 201 200 202 201 200 200 195 192 195 199 195 190 190 193 194 196 199 204 212 213 219 224 225 228 204 208 235 246 242 242 245 245 245 230 230 228 240 251 259 259
223 211 206 205 204 203 202 200 197 191 190 195 196 190 190 191 193 194 197 201 205 209 216 222 227 232 232 199 204 219 244 250 249 249 248 250 247 229 237 228 226 237 241
287 211 201 194 195 196 196 194 192 189 190 193 194 191 190 191 190 196 201 205 209 214 220 226 231 235 232 203 209 214 234 249 251 250 249 250 255 247 243 248 244 242 236
36 61 111 143 148 160 168 171 178 182 187 192 192 192 190 190 191 198 204 206 212 219 223 227 233 238 239 210 211 215 240 243 247 249 249 249 250 243 227 244 253 254 253
57 65 73 80 90 104 128 143 152 166 182 185 185 185 188 193 197 202 207 209 217 227 233 233 234 239 243 219 207 211 244 251 253 251 249 242 242 244 218 237 248 253 254
63 67 71 72 71 80 102 111 113 127 151 162 166 172 182 199 205 205 207 214 221 231 240 245 243 243 246 233 210 208 240 257 261 262 258 254 220 223 223 230 245 251 258
68 69 72 71 67 68 82 88 83 81 97 117 139 153 170 203 203 206 213 220 232 235 238 244 252 250 242 239 228 215 227 251 264 267 268 270 242 221 223 228 241 244 247
68 67 71 69 61 58 62 68 58 57 72 89 102 117 137 174 221 223 223 226 227 248 253 253 257 260 258 241 223 224 229 235 248 264 270 276 273 252 241 236 235 233 237
71 71 71 70 64 57 57 58 52 53 70 75 72 83 109 157 187 243 248 256 256 259 268 272 274 276 272 270 271 261 249 239 245 258 264 254 248 246 256 256 232 231 239
75 74 76 76 72 67 61 53 50 52 61 65 63 62 72 56 281 260 296 288 300 318 296 296 295 293 290 317 343 312 296 297 302 302 278 269 262 253 247 244 242 239 235
79 75 72 71 68 66 61 54 49 48 47 49 39 27 17 12 325 314 288 220 252 257 250 257 272 290 290 300 298 289 280 275 276 277 269 267 265 262 260 257 253 245 242